Total_Precipitation_Accumulation
0.02 0.02 0.05 0.03 0.01 0.02 0.05 0.04 0.05 0.06 0.07 0.09 0.08 0.07 0.09 0.11 0.08 0.04 0.02 0.02 0.03 0.05 0.08 0.09 0.12 0.12 0.12 0.12 0.11 0.09 0.08 0.09 0.11 0.13 0.14 0.16 0.19 0.27 0.40 0.45 0.46 0.35 0.27
0.01 0.02 0.05 0.04 0.02 0.02 0.05 0.06 0.06 0.06 0.06 0.06 0.07 0.10 0.14 0.12 0.11 0.05 0.03 0.03 0.03 0.04 0.06 0.07 0.08 0.08 0.10 0.10 0.08 0.06 0.06 0.07 0.10 0.14 0.14 0.12 0.19 0.31 0.38 0.36 0.46 0.32 0.23
0.00 0.01 0.03 0.04 0.03 0.02 0.03 0.04 0.08 0.09 0.07 0.05 0.08 0.11 0.13 0.12 0.11 0.09 0.08 0.04 0.04 0.04 0.04 0.04 0.05 0.06 0.05 0.05 0.04 0.04 0.04 0.05 0.08 0.15 0.30 0.25 0.15 0.29 0.36 0.35 0.30 0.20 0.16
0.01 0.00 0.01 0.02 0.02 0.02 0.02 0.04 0.08 0.09 0.06 0.07 0.13 0.14 0.10 0.11 0.12 0.11 0.10 0.06 0.06 0.04 0.04 0.04 0.04 0.05 0.04 0.02 0.02 0.03 0.04 0.06 0.12 0.25 0.52 0.37 0.21 0.24 0.34 0.30 0.20 0.15 0.15
0.01 0.01 0.01 0.02 0.02 0.02 0.02 0.04 0.07 0.08 0.07 0.07 0.11 0.11 0.08 0.12 0.13 0.11 0.10 0.09 0.11 0.07 0.03 0.04 0.05 0.04 0.03 0.02 0.03 0.03 0.04 0.08 0.15 0.30 0.37 0.33 0.39 0.29 0.28 0.28 0.27 0.23 0.21
0.01 0.01 0.02 0.03 0.03 0.03 0.03 0.04 0.06 0.08 0.08 0.06 0.06 0.09 0.08 0.13 0.18 0.16 0.12 0.14 0.17 0.14 0.08 0.05 0.05 0.05 0.04 0.02 0.02 0.03 0.06 0.12 0.16 0.21 0.24 0.27 0.44 0.39 0.31 0.43 0.52 0.47 0.39
0.01 0.01 0.02 0.03 0.04 0.03 0.04 0.04 0.06 0.07 0.07 0.05 0.04 0.05 0.05 0.09 0.13 0.14 0.13 0.14 0.14 0.13 0.11 0.09 0.07 0.06 0.06 0.06 0.04 0.05 0.09 0.16 0.20 0.19 0.20 0.27 0.42 0.32 0.35 0.60 0.83 0.74 0.58
0.02 0.02 0.02 0.04 0.04 0.04 0.04 0.04 0.05 0.05 0.05 0.04 0.04 0.04 0.04 0.06 0.08 0.10 0.11 0.10 0.10 0.09 0.09 0.10 0.11 0.10 0.08 0.07 0.07 0.08 0.10 0.12 0.16 0.21 0.24 0.30 0.27 0.25 0.44 0.70 0.89 0.83 0.70
0.03 0.02 0.03 0.04 0.04 0.04 0.04 0.04 0.04 0.04 0.04 0.04 0.04 0.04 0.04 0.05 0.06 0.08 0.10 0.11 0.10 0.11 0.13 0.14 0.12 0.11 0.11 0.09 0.07 0.08 0.10 0.13 0.18 0.26 0.31 0.45 0.43 0.44 0.65 0.80 0.86 0.87 0.80
0.08 0.04 0.04 0.04 0.05 0.05 0.05 0.05 0.05 0.05 0.05 0.06 0.06 0.06 0.06 0.06 0.07 0.10 0.13 0.13 0.14 0.16 0.17 0.19 0.22 0.21 0.19 0.16 0.16 0.18 0.18 0.15 0.13 0.20 0.40 0.44 0.49 0.66 0.87 0.94 1.00 0.99 0.99
0.20 0.12 0.09 0.07 0.07 0.07 0.07 0.07 0.09 0.10 0.10 0.10 0.11 0.11 0.10 0.09 0.14 0.22 0.21 0.26 0.29 0.33 0.34 0.36 0.40 0.40 0.36 0.28 0.31 0.41 0.33 0.23 0.20 0.27 0.42 0.48 0.54 0.80 1.04 1.10 1.15 1.19 1.20
0.40 0.30 0.22 0.19 0.14 0.14 0.15 0.19 0.18 0.18 0.21 0.21 0.29 0.32 0.28 0.31 0.32 0.26 0.37 0.54 0.62 0.76 0.80 0.83 0.87 0.74 0.60 0.51 0.90 1.11 0.42 0.38 0.41 0.40 0.62 0.68 0.77 1.08 1.31 1.22 1.16 1.23 1.21
0.55 0.35 0.25 0.28 0.29 0.30 0.32 0.30 0.30 0.32 0.40 0.43 0.45 0.52 0.61 0.56 0.45 0.40 0.51 0.72 0.87 1.05 1.16 1.48 1.59 1.20 1.15 1.18 1.28 1.18 0.59 0.49 0.49 0.52 0.81 0.96 1.04 1.38 1.67 1.47 1.26 1.23 1.24
0.55 0.40 0.39 0.42 0.43 0.47 0.48 0.46 0.48 0.49 0.54 0.59 0.69 0.81 0.95 0.83 0.72 0.73 0.86 0.99 1.18 1.30 1.57 1.74 1.96 1.77 1.56 1.39 1.34 1.20 0.99 0.89 0.74 0.91 1.14 1.01 1.12 1.42 1.71 1.63 1.42 1.29 1.25
0.69 0.63 0.61 0.63 0.69 0.66 0.64 0.63 0.63 0.62 0.63 0.79 0.95 1.07 1.17 1.19 1.23 1.30 1.23 1.35 1.41 1.54 1.74 2.02 2.06 2.20 2.21 2.14 1.82 1.59 1.50 1.35 1.14 1.33 1.56 1.44 1.24 1.30 1.54 1.71 1.61 1.45 1.31
0.99 0.94 0.90 0.86 0.82 0.81 0.81 0.83 0.86 0.90 1.01 1.11 1.27 1.35 1.52 1.70 1.78 1.90 1.87 1.87 1.71 1.73 1.91 2.18 2.32 2.70 2.58 2.44 1.97 1.78 1.64 1.58 1.31 1.32 1.55 1.67 1.35 1.22 1.32 1.58 1.73 1.63 1.47
1.16 1.11 1.22 1.24 1.21 1.31 1.44 1.43 1.38 1.48 1.56 1.63 1.74 1.81 1.93 2.01 2.12 2.25 2.15 2.06 2.06 2.08 2.17 2.33 2.46 2.58 2.36 2.26 2.06 1.93 1.73 1.54 1.30 1.29 1.40 1.52 1.44 1.25 1.22 1.34 1.57 1.62 1.57
1.20 1.29 1.43 1.56 1.78 1.96 2.16 2.20 2.11 2.09 2.07 2.05 2.02 2.10 2.17 2.23 2.36 2.56 2.33 2.17 2.47 2.37 2.47 2.72 2.71 2.66 2.44 2.33 2.16 1.96 1.78 1.52 1.20 1.18 1.21 1.33 1.48 1.27 1.19 1.27 1.36 1.39 1.53
1.42 1.67 1.79 2.01 2.26 2.50 2.62 2.67 2.75 2.69 2.52 2.29 2.24 2.26 2.18 2.20 2.29 2.50 2.28 2.28 2.45 2.66 2.69 2.52 2.88 2.81 2.62 2.49 2.12 1.80 1.54 1.31 1.10 1.02 1.02 1.04 1.19 1.07 0.99 1.08 1.20 1.25 1.50
1.94 2.25 2.52 2.74 2.84 2.74 2.70 2.74 2.68 2.52 2.40 2.30 2.29 2.21 2.09 2.13 2.20 2.48 2.29 2.23 2.38 2.58 2.52 2.51 2.73 2.77 2.53 2.51 2.07 1.59 1.37 1.09 1.00 0.98 0.90 0.90 0.91 0.82 0.79 0.94 1.23 1.09 1.17
2.46 2.70 2.95 3.21 3.37 3.25 3.29 3.29 3.20 2.89 2.75 2.50 2.24 1.98 1.90 1.89 2.06 2.37 2.16 2.31 2.32 2.32 2.33 2.40 2.63 2.64 2.42 2.53 2.26 1.71 1.25 0.94 0.83 0.83 0.88 0.87 0.79 0.85 1.01 1.16 1.28 1.24 1.13
2.30 2.72 3.05 3.00 2.93 2.82 3.00 3.22 3.39 3.34 2.97 2.46 2.22 2.09 1.87 1.80 1.92 2.09 2.12 2.04 2.10 2.16 2.19 2.26 2.45 2.29 2.07 2.31 2.31 2.13 1.46 1.06 0.80 0.69 0.92 0.95 0.90 1.02 1.09 1.12 1.28 1.41 1.39
1.83 2.18 2.29 2.15 2.12 2.03 2.10 2.34 2.52 2.78 2.63 2.34 2.08 1.94 1.83 1.79 1.77 1.82 1.88 1.90 1.93 1.92 1.94 2.09 2.11 2.04 1.89 1.94 2.15 2.29 1.83 1.32 1.02 0.72 0.69 0.78 0.95 1.03 1.04 1.16 1.16 1.23 1.28
1.20 1.18 1.24 1.34 1.42 1.49 1.59 1.82 2.08 2.33 2.29 2.21 2.15 1.89 1.69 1.55 1.51 1.52 1.53 1.58 1.65 1.69 1.79 1.71 1.75 1.92 1.93 1.79 1.91 1.97 1.88 1.77 1.57 1.02 0.74 0.76 0.97 1.02 1.03 1.03 1.12 1.25 1.27
0.98 0.99 0.98 1.09 1.25 1.37 1.45 1.59 1.79 2.13 2.12 1.94 1.80 1.65 1.56 1.48 1.41 1.35 1.38 1.39 1.38 1.42 1.52 1.56 1.75 1.80 1.85 1.80 1.77 1.78 1.86 1.84 1.68 1.40 0.98 0.91 0.94 0.88 0.94 1.01 1.11 1.30 1.43
0.81 0.90 0.95 0.97 1.06 1.13 1.19 1.29 1.35 1.51 1.57 1.47 1.41 1.36 1.29 1.21 1.19 1.22 1.23 1.23 1.25 1.29 1.41 1.46 1.50 1.52 1.57 1.61 1.59 1.60 1.70 1.64 1.56 1.59 1.29 1.16 1.13 0.98 1.02 1.06 1.10 1.22 1.29